Change the Weather History Date:

Saturday, July 6, 2013

  Actual Average Record
Temperature  
Mean Temperature 75 °F -  
Max Temperature 93 °F 91 °F 102 °F (2007)
Min Temperature 57 °F 54 °F 50 °F (1997)
Cooling Degree Days 10    
Growing Degree Days 25 (Base 50)    
Moisture  
Dew Point 46 °F    
Average Humidity 41    
Maximum Humidity 87    
Minimum Humidity 7    
Precipitation  
Precipitation 0.02 in - - ()
Sea Level Pressure  
Sea Level Pressure 29.77 in    
Wind  
Wind Speed 9 mph (SSW)    
Max Wind Speed 24 mph    
Max Gust Speed 34 mph    
Visibility 10 miles    
Events      
Averages and records for this station are not official NWS values.
T = Trace of Precipitation, MM = Missing Value Source: NWS Daily Summary

Daily Weather History Graph

Daily Weather History Graph

Search for Another Location

Airport or City:

Trip Planner

Search our weather history database for the weather conditions in past years. The results will help you decide how hot, cold, wet, or windy it might be!

Date:

Astronomy

Jul. 06, 2013 Rise Set
Actual Time 6:14 AM MDT 8:58 PM MDT
Civil Twilight 5:43 AM MDT 9:30 PM MDT
Nautical Twilight 5:04 AM MDT 10:09 PM MDT
Astronomical Twilight 4:19 AM MDT 10:53 PM MDT
Moon 5:03 AM MDT (7/6) 7:44 PM MDT (7/6)
Length of Visible Light 15h 46m
Length of Day
14h 44m
Waning Crescent, 2% of the Moon is Illuminated
Jul 6
Waning Crescent
Jul 8
New
Jul 15
First Quarter
Jul 22
Full
Jul 29
Last Quarter

Hourly Weather History & Observations

Time (MDT) Temp. Dew Point Humidity Pressure Visibility Wind Dir Wind Speed Gust Speed Precip Events Conditions
12:52 AM 64.9 °F 55.9 °F 73% 29.78 in 10.0 mi North 4.6 mph - N/A   Clear
1:52 AM 66.0 °F 54.0 °F 65% 29.79 in 10.0 mi North 11.5 mph - N/A   Clear
2:52 AM 63.0 °F 55.0 °F 75% 29.85 in 10.0 mi East 5.8 mph - 0.01 in   Clear
3:52 AM 60.1 °F 55.0 °F 83% 29.82 in 10.0 mi SW 3.5 mph - N/A   Clear
4:52 AM 59.0 °F 53.1 °F 81% 29.83 in 10.0 mi Calm Calm - 0.01 in   Clear
5:52 AM 57.9 °F 54.0 °F 87% 29.82 in 10.0 mi NNE 3.5 mph - N/A   Clear
6:52 AM 59.0 °F 55.0 °F 87% 29.81 in 10.0 mi West 8.1 mph - N/A   Clear
7:52 AM 63.0 °F 55.9 °F 78% 29.83 in 10.0 mi SSW 3.5 mph - 0.01 in   Clear
8:52 AM 66.0 °F 55.0 °F 68% 29.83 in 10.0 mi Calm Calm - N/A   Clear
9:52 AM 72.0 °F 54.0 °F 53% 29.84 in 10.0 mi South 6.9 mph - N/A   Clear
10:52 AM 79.0 °F 53.1 °F 40% 29.81 in 10.0 mi South 6.9 mph - N/A   Clear
11:52 AM 84.9 °F 46.9 °F 27% 29.79 in 10.0 mi South 15.0 mph - N/A   Clear
12:52 PM 90.0 °F 44.1 °F 20% 29.76 in 10.0 mi South 15.0 mph 24.2 mph N/A   Clear
1:52 PM 93.0 °F 39.0 °F 15% 29.73 in 10.0 mi SSW 15.0 mph 33.4 mph N/A   Clear
2:52 PM 84.9 °F 46.9 °F 27% 29.76 in 10.0 mi SE 11.5 mph - 0.00 in   Clear
3:50 PM 91.4 °F 33.8 °F 13% 29.93 in 10.0 mi SW 20.7 mph 27.6 mph N/A   Clear
3:52 PM 91.9 °F 34.0 °F 13% 29.71 in 10.0 mi SW 17.3 mph 27.6 mph N/A   Clear
4:52 PM 91.9 °F 33.1 °F 12% 29.71 in 10.0 mi SW 24.2 mph 34.5 mph N/A   Clear
5:52 PM 90.0 °F 34.0 °F 14% 29.70 in 10.0 mi SW 20.7 mph - N/A   Clear
6:52 PM 90.0 °F 32.0 °F 13% 29.69 in 10.0 mi SW 8.1 mph 25.3 mph N/A   Partly Cloudy
7:52 PM 89.1 °F 33.1 °F 14% 29.69 in 10.0 mi SSW 15.0 mph 24.2 mph N/A   Clear
8:52 PM 84.0 °F 37.9 °F 19% 29.71 in 10.0 mi South 11.5 mph - N/A   Clear
9:52 PM 78.1 °F 44.1 °F 30% 29.73 in 10.0 mi South 10.4 mph - N/A   Clear
10:52 PM 80.1 °F 43.0 °F 27% 29.73 in 10.0 mi South 12.7 mph - N/A   Clear
11:52 PM 75.9 °F 45.0 °F 33% 29.73 in 10.0 mi SSW 13.8 mph - N/A   Clear